157P/Tritton (2022)

Japanese version
Home page
Updated on August 6, 2022

---------------------------------------------------------------------

* Profile

* Pictures

* Orbital Elements

Epoch 2022 Jan. 21.0 TT = JDT 2459600.5
T 2022 Sept.  9.77406 TT                                Rudenko
q   1.5719772            (2000.0)            P               Q
n   0.14753169     Peri.  155.00659     +0.11967090     -0.97140158
a   3.5471469      Node   287.57574     +0.87090855     +0.20188487
e   0.5568333      Incl.   12.42270     +0.47665205     -0.12498585
P   6.68
From 29 observations 2017 July 1-2021 Oct. 26, mean residual 0".6.
     Nongravitational parameters A1 = +3.96, A2 = +0.0135.

* Magnitudes Graph

        m1 = 13.0 + 5 log d + 10.0 log r

---------------------------------------------------------------------

The orbital elements are published on M.P.E.C. 2021-W31.
The magnitudes graphs are made with Comet for Windows.

---------------------------------------------------------------------

Copyright(C) Seiichi Yoshida (comet@aerith.net). All rights reserved.